Location: Zagreb
(45.8000°N, 16.0000°E)
Time: 20:05:54
(UTC+01:00)

YUBILEINY - Pass Details

Date: 08 November 2020
Orbit: 1478 x 1509 km, 82.5° (Epoch: 01 December)

Event Time Altitude Azimuth Distance (km) Brightness Sun altitude
Rises 18:23:45 0° 356° (N) 4,610 ? -19.6°
Reaches altitude 10° 18:27:52 10° 14° (NNE) 3,627 ? -20.3°
Enters shadow 18:32:15 18° 44° (NE) 3,009 ? -21.0°
